Weather Roundup
Issued by NWS

Home | Current Version | Previous Version | Graphics & Text | Print | Product List | Glossary Off
Versions: 1 2 3 4 5 6 7 8 9 10 11 12 13 14 15 16 17 18 19 20 21 22 23 24 25 26 27 28 29 30 31 32 33 34 35 36 37 38 39 40 41 42 43 44 45 46 47 48 49 50

000
NZUS93 KARX 191559
HRRWXR

CURRENT HOURLY OBSERVATIONS ACROSS
MUCH OF THE UPPER MISSISSIPPI VALLEY
NATIONAL WEATHER SERVICE LA CROSSE WI
1000 AM CST FRI DEC 19 2014


...SOUTHEAST MINNESOTA...


CITY           SKY/WX    TMP DP  RH WIND       PRES   REMARKS
ROCHESTER      CLOUDY    25  20  81 S9        30.24F WCI  15
ROCHESTER/MAYO CLOUDY    25  19  78 SE6       30.25S WCI  18
WINONA         CLOUDY    28  21  74 SE6       30.30S WCI  22
AUSTIN         CLOUDY    25  21  86 S5        30.24S FOG     WCI  19
ALBERT LEA     MOSUNNY   27  25  93 S8        30.23S FOG     WCI  18
DODGE CENTER   CLOUDY    25  21  86 S7        30.23S FOG     WCI  17
PRESTON        CLOUDY    24  20  83 S5        30.26S WCI  18
OWATONNA       MOSUNNY   27  21  80 SE7       30.23R FOG     WCI  19
FARIBAULT      CLOUDY    27  23  86 SE6       30.24R FOG     WCI  20
$$

...ELSEWHERE IN MINNESOTA...


CITY           SKY/WX    TMP DP  RH WIND       PRES   REMARKS
MINNEAPOLIS    CLOUDY    24  19  81 SE6       30.25S WCI  17
INTNL FALLS    CLOUDY    22  17  81 S8        30.16S WCI  12
DULUTH         CLOUDY    22  19  89 S7        30.21S FOG     WCI  13
RED WING       CLOUDY    27  19  74 SE6       30.27S WCI  20
REDWOOD FALLS  CLOUDY    29  27  92 S10       30.18S FOG     WCI  20
MANKATO        CLOUDY    27  21  80 S8        30.22R WCI  18
WORTHINGTON    CLOUDY    28  27  93 S9        30.16S WCI  20
FAIRMONT       CLOUDY    28  25  86 S12       30.20S WCI  18
$$

...SOUTHWEST WISCONSIN...


CITY           SKY/WX    TMP DP  RH WIND       PRES   REMARKS
LA CROSSE      CLOUDY    27  18  69 SE5       30.31S WCI  22
PRAIRIE DU CHI CLOUDY    27  20  75 SE3       30.31S
BOSCOBEL       PTSUNNY   28  18  66 E3        30.32S
LONE ROCK      NOT AVBL
PLATTEVILLE    PTSUNNY   26  20  79 CALM      30.31R
FORT MC COY    CLOUDY    25  19  77 CALM      30.31S
VIROQUA        CLOUDY    24  19  82 CALM      30.27S
WIS DELLS      NOT AVBL
$$

...ELSEWHERE IN WISCONSIN...


CITY           SKY/WX    TMP DP  RH WIND       PRES   REMARKS
MILWAUKEE      MOSUNNY   29  18  63 NW8       30.30F WCI  21
MADISON        CLOUDY    25  20  81 W3        30.30S
GREEN BAY      SUNNY     24  20  84 CALM      30.32S
EAU CLAIRE     NOT AVBL
BLACK RVR FLS  CLOUDY    25  19  77 CALM      30.30R
MEDFORD        CLOUDY    22  18  86 CALM      30.25S
WAUSAU         CLOUDY    20  17  88 CALM      30.27R
WIS RAPIDS     CLOUDY    24  19  81 CALM      30.31R
MARSHFIELD     CLOUDY    24  20  84 S7        30.27R WCI  16
RICE LAKE      CLOUDY    24  20  85 S6        30.28S WCI  17
$$

...NORTHEAST IOWA...


CITY           SKY/WX    TMP DP  RH WIND       PRES   REMARKS
DECORAH        CLOUDY    25  19  80 S6        30.26S WCI  18
MASON CITY     CLOUDY    26  22  84 S10       30.25S WCI  16
CHARLES CITY   CLOUDY    27  23  86 SE6       30.27R WCI  20
OELWEIN        CLOUDY    25  21  86 S7        30.29R WCI  17
$$

...ELSEWHERE IN IOWA...


CITY           SKY/WX    TMP DP  RH WIND       PRES   REMARKS
DES MOINES     CLOUDY    30  26  85 SE7       30.29R FOG     WCI  23
IOWA CITY      CLOUDY    26  20  77 SE7       30.35R WCI  18
FORT DODGE     CLOUDY    28  27  93 S6        30.24S WCI  22
$$

...NORTHERN ILLINOIS...


CITY           SKY/WX    TMP DP  RH WIND       PRES   REMARKS
CHICAGO-OHARE  CLOUDY    29  20  69 NW6       30.32R WCI  23
CHICAGO-MIDWAY CLOUDY    32  22  66 N5        30.32R WCI  27
MOLINE         CLOUDY    26  20  77 E5        30.35R WCI  20
ROCKFORD       FLURRIES  28  21  75 N3        30.34R
PEORIA         SUNNY     28  19  69 CALM      30.35R
$$

NOTE: "FAIR" INDICATES FEW OR NO CLOUDS BELOW 12,000 FEET WITH NO
SIGNIFICANT WEATHER AND/OR OBSTRUCTIONS TO VISIBILITY. WIND
SPEEDS ARE IN MILES-PER-HOUR.



USA.gov is the U.S. government's official web portal to all federal, state and local government web resources and services.